AUA212 LOWI-LIRF

Flight info

Callsign AUA212
Flight time N/A
Altitude 19000
Route BRENO2J/08 BRENO M726 GAVRA Y345 RITEB
Aircraft A320/M-SDE3FGHIRWY/LB1

Departure

Time 2026-05-04 20:02
Airport Innsbruck Airport (LOWI)

Arrival

Time N/A
Airport Rome–Fiumicino Leonardo da Vinci International Airport (LIRF)
Time Latitude Longitude Altitude Speed Heading
2026-05-04 19:18 47.25797 11.34812 1900 ft 0 kts 171°
2026-05-04 19:43 47.25817 11.34808 1895 ft 4 kts 182°
2026-05-04 19:43 47.25842 11.34816 1895 ft 4 kts 216°
2026-05-04 19:43 47.25855 11.34840 1901 ft 1 kts 261°
2026-05-04 19:43 47.25855 11.34846 1903 ft 0 kts 261°
2026-05-04 19:47 47.25855 11.34840 1901 ft 4 kts 261°
2026-05-04 19:47 47.25846 11.34754 1903 ft 9 kts 261°
2026-05-04 19:48 47.25835 11.34656 1900 ft 12 kts 261°
2026-05-04 19:48 47.25823 11.34543 1907 ft 11 kts 260°
2026-05-04 19:48 47.25812 11.34437 1907 ft 14 kts 261°
2026-05-04 19:48 47.25795 11.34286 1903 ft 14 kts 261°
2026-05-04 19:49 47.25780 11.34154 1901 ft 12 kts 261°
2026-05-04 19:49 47.25770 11.34038 1907 ft 11 kts 265°
2026-05-04 19:49 47.25783 11.33942 1899 ft 9 kts 292°
2026-05-04 19:49 47.25813 11.33873 1899 ft 5 kts 306°
2026-05-04 19:50 47.25814 11.33871 1894 ft 0 kts 306°
2026-05-04 19:58 47.25814 11.33870 1907 ft 1 kts 306°
2026-05-04 19:58 47.25848 11.33803 1900 ft 10 kts 306°
2026-05-04 19:59 47.25904 11.33691 1898 ft 14 kts 306°
2026-05-04 19:59 47.25932 11.33567 1908 ft 14 kts 261°
2026-05-04 19:59 47.25913 11.33399 1906 ft 17 kts 261°
2026-05-04 19:59 47.25870 11.33256 1899 ft 15 kts 233°
2026-05-04 20:00 47.25835 11.33127 1900 ft 13 kts 262°
2026-05-04 20:00 47.25880 11.33084 1905 ft 8 kts 54°
2026-05-04 20:00 47.25887 11.33153 1906 ft 6 kts 82°
2026-05-04 20:00 47.25888 11.33163 1906 ft 0 kts 81°
2026-05-04 20:01 47.25888 11.33165 1906 ft 2 kts 81°
2026-05-04 20:01 47.25915 11.33416 1907 ft 62 kts 81°
2026-05-04 20:01 47.26018 11.34379 1902 ft 125 kts 81°
2026-05-04 20:02 47.26172 11.35846 2146 ft 157 kts 82°
2026-05-04 20:02 47.26323 11.37522 2754 ft 168 kts 84°
2026-05-04 20:02 47.26460 11.39231 3423 ft 169 kts 85°
2026-05-04 20:02 47.26586 11.40980 3861 ft 177 kts 84°
2026-05-04 20:03 47.26734 11.42822 4260 ft 185 kts 86°
2026-05-04 20:03 47.26926 11.44716 4739 ft 187 kts 80°
2026-05-04 20:03 47.27351 11.46481 5361 ft 181 kts 66°
2026-05-04 20:03 47.27941 11.48120 5889 ft 182 kts 66°
2026-05-04 20:04 47.28509 11.49793 6369 ft 183 kts 68°
2026-05-04 20:04 47.29039 11.51481 6852 ft 185 kts 67°
2026-05-04 20:04 47.29576 11.53221 7265 ft 191 kts 68°
2026-05-04 20:04 47.30110 11.55079 7616 ft 201 kts 71°
2026-05-04 20:05 47.30590 11.57029 8049 ft 204 kts 75°
2026-05-04 20:05 47.31062 11.59001 8554 ft 204 kts 71°
2026-05-04 20:05 47.31573 11.60941 9055 ft 202 kts 81°
2026-05-04 20:05 47.31415 11.62895 9530 ft 191 kts 124°
2026-05-04 20:06 47.30558 11.64301 10004 ft 182 kts 152°
2026-05-04 20:06 47.29412 11.64888 10405 ft 176 kts 180°
2026-05-04 20:06 47.28250 11.64508 10786 ft 173 kts 213°
2026-05-04 20:06 47.27448 11.63209 11059 ft 176 kts 242°
2026-05-04 20:07 47.26994 11.61540 11555 ft 172 kts 244°
2026-05-04 20:07 47.26450 11.60022 12122 ft 166 kts 240°
2026-05-04 20:07 47.26014 11.58411 12411 ft 177 kts 255°
2026-05-04 20:07 47.25789 11.56570 12607 ft 187 kts 257°
2026-05-04 20:08 47.25524 11.54670 12649 ft 190 kts 255°
2026-05-04 20:08 47.25225 11.52787 12658 ft 188 kts 254°
2026-05-04 20:08 47.24912 11.50917 12650 ft 188 kts 254°
2026-05-04 20:08 47.24593 11.49078 12665 ft 189 kts 253°
2026-05-04 20:09 47.24260 11.47209 12663 ft 188 kts 253°
2026-05-04 20:09 47.23925 11.45350 12663 ft 189 kts 253°
2026-05-04 20:09 47.23581 11.43456 13076 ft 191 kts 253°
2026-05-04 20:09 47.23139 11.41631 13606 ft 190 kts 235°
2026-05-04 20:10 47.22163 11.40333 13985 ft 196 kts 205°
2026-05-04 20:10 47.20768 11.39911 14120 ft 217 kts 186°
2026-05-04 20:10 47.19212 11.39758 14247 ft 232 kts 186°
2026-05-04 20:10 47.17515 11.39596 14371 ft 257 kts 185°
2026-05-04 20:11 47.15678 11.39422 14563 ft 278 kts 185°
2026-05-04 20:11 47.13644 11.39233 14752 ft 301 kts 186°
2026-05-04 20:11 47.11480 11.39013 14879 ft 323 kts 185°
2026-05-04 20:11 47.09164 11.38776 15018 ft 344 kts 185°
2026-05-04 20:12 47.06712 11.38528 15264 ft 360 kts 185°
2026-05-04 20:12 47.04221 11.38277 15777 ft 366 kts 185°
2026-05-04 20:12 47.01668 11.38024 16407 ft 369 kts 185°
2026-05-04 20:12 46.99090 11.37769 17003 ft 373 kts 185°
2026-05-04 20:13 46.96491 11.37508 17555 ft 377 kts 186°
2026-05-04 20:13 46.93867 11.37228 18175 ft 380 kts 186°
2026-05-04 20:13 46.91218 11.36934 18675 ft 383 kts 186°
2026-05-04 20:13 46.88550 11.36634 18976 ft 385 kts 186°
2026-05-04 20:14 46.85865 11.36335 19051 ft 393 kts 186°
2026-05-04 20:14 46.83094 11.36029 19060 ft 403 kts 186°
2026-05-04 20:14 46.80317 11.35728 19076 ft 407 kts 186°
2026-05-04 20:14 46.77492 11.35424 19074 ft 408 kts 185°
2026-05-04 20:15 46.74663 11.35112 19051 ft 407 kts 186°
2026-05-04 20:15 46.71843 11.34783 19066 ft 407 kts 186°
2026-05-04 20:15 46.69011 11.34493 19059 ft 408 kts 185°
2026-05-04 20:15 46.66188 11.34223 19053 ft 407 kts 185°
2026-05-04 20:16 46.63363 11.33953 19052 ft 407 kts 185°
2026-05-04 20:16 46.60497 11.33672 19109 ft 418 kts 185°
2026-05-04 20:16 46.57558 11.33372 19222 ft 430 kts 185°
2026-05-04 20:16 46.54535 11.33057 19333 ft 440 kts 185°
2026-05-04 20:17 46.51446 11.32737 19455 ft 449 kts 185°
2026-05-04 20:17 46.48400 11.32424 20240 ft 437 kts 185°
2026-05-04 20:17 46.45413 11.32393 21248 ft 428 kts 177°
2026-05-04 20:17 46.42420 11.32865 21409 ft 437 kts 174°
2026-05-04 20:18 46.39378 11.33418 21628 ft 445 kts 174°
2026-05-04 20:18 46.36283 11.34011 21764 ft 452 kts 173°
2026-05-04 20:18 46.33148 11.34621 21879 ft 458 kts 173°
2026-05-04 20:18 46.30025 11.35224 21796 ft 442 kts 174°
2026-05-04 20:19 46.27044 11.35787 21673 ft 424 kts 174°
2026-05-04 20:19 46.24174 11.36333 21544 ft 408 kts 173°
2026-05-04 20:19 46.21417 11.36955 21423 ft 397 kts 174°
2026-05-04 20:19 46.18673 11.37483 21299 ft 399 kts 175°
2026-05-04 20:20 46.15948 11.37935 21171 ft 400 kts 175°
2026-05-04 20:20 46.13180 11.38362 21045 ft 399 kts 175°
2026-05-04 20:20 46.10418 11.38798 20922 ft 400 kts 175°
2026-05-04 20:20 46.07654 11.39261 20802 ft 400 kts 174°
2026-05-04 20:21 46.04898 11.39747 20675 ft 398 kts 174°
2026-05-04 20:21 46.02149 11.40249 20551 ft 398 kts 174°
2026-05-04 20:21 45.96660 11.41265 20976 ft 400 kts 174°
2026-05-04 20:22 45.93890 11.41769 21354 ft 402 kts 174°
2026-05-04 20:22 45.91109 11.42269 21722 ft 405 kts 174°
2026-05-04 20:22 45.88308 11.42770 22103 ft 406 kts 174°
2026-05-04 20:22 45.85492 11.43275 22500 ft 408 kts 174°
2026-05-04 20:23 45.82708 11.43777 22875 ft 410 kts 174°
2026-05-04 20:23 45.79868 11.44292 23282 ft 412 kts 174°
2026-05-04 20:23 45.77015 11.44807 23690 ft 414 kts 174°
2026-05-04 20:23 45.74147 11.45320 24016 ft 416 kts 174°
2026-05-04 20:24 45.71267 11.45832 24359 ft 418 kts 174°
2026-05-04 20:24 45.68371 11.46343 24715 ft 420 kts 174°
2026-05-04 20:24 45.65464 11.46860 25050 ft 422 kts 174°
2026-05-04 20:24 45.62539 11.47385 25413 ft 424 kts 174°
2026-05-04 20:25 45.59650 11.47904 25768 ft 426 kts 174°
2026-05-04 20:25 45.56707 11.48431 26132 ft 427 kts 175°
2026-05-04 20:25 45.53749 11.48956 26505 ft 429 kts 175°
2026-05-04 20:25 45.50779 11.49479 26889 ft 431 kts 175°
2026-05-04 20:26 45.47801 11.50001 27273 ft 432 kts 175°
2026-05-04 20:26 45.44821 11.50525 27664 ft 432 kts 175°
2026-05-04 20:26 45.41827 11.51054 28063 ft 433 kts 175°
2026-05-04 20:26 45.38832 11.51589 28455 ft 434 kts 175°
2026-05-04 20:27 45.35875 11.52118 28861 ft 434 kts 176°
2026-05-04 20:27 45.32876 11.52655 29276 ft 435 kts 176°
2026-05-04 20:27 45.29875 11.53191 29688 ft 434 kts 176°
2026-05-04 20:27 45.26877 11.53721 30119 ft 434 kts 176°
2026-05-04 20:28 45.23879 11.54246 30493 ft 434 kts 176°
2026-05-04 20:28 45.20886 11.54766 30858 ft 433 kts 176°
2026-05-04 20:28 45.17881 11.55287 31043 ft 438 kts 177°
2026-05-04 20:28 45.14840 11.55810 31092 ft 443 kts 177°
2026-05-04 20:29 45.08697 11.56874 31088 ft 446 kts 177°
2026-05-04 20:29 45.02575 11.57952 31100 ft 447 kts 176°
2026-05-04 20:30 44.96400 11.59041 31095 ft 448 kts 177°
2026-05-04 20:30 44.90202 11.60124 31100 ft 449 kts 177°
2026-05-04 20:31 44.85042 11.61017 31104 ft 450 kts 177°
2026-05-04 20:31 44.77825 11.62295 31085 ft 450 kts 177°
2026-05-04 20:32 44.72578 11.63370 31101 ft 453 kts 176°
2026-05-04 20:32 44.66349 11.64701 31095 ft 452 kts 176°
2026-05-04 20:33 44.60163 11.65990 31099 ft 452 kts 176°
2026-05-04 20:33 44.53930 11.67249 31095 ft 453 kts 177°
2026-05-04 20:34 44.47689 11.68500 31098 ft 453 kts 177°
2026-05-04 20:34 44.41447 11.69764 31110 ft 454 kts 176°
2026-05-04 20:35 44.35191 11.71033 31126 ft 455 kts 177°
2026-05-04 20:35 44.28973 11.72307 31111 ft 455 kts 177°
2026-05-04 20:36 44.22699 11.73516 31116 ft 455 kts 177°
2026-05-04 20:36 44.16444 11.74779 31114 ft 454 kts 176°
2026-05-04 20:37 44.10186 11.76046 31103 ft 454 kts 177°
2026-05-04 20:37 44.03925 11.77283 31106 ft 454 kts 177°
2026-05-04 20:38 43.97707 11.78510 31108 ft 454 kts 177°
2026-05-04 20:38 43.91448 11.79748 31123 ft 454 kts 177°
2026-05-04 20:39 43.85186 11.80976 31123 ft 455 kts 177°
2026-05-04 20:39 43.78922 11.82208 31122 ft 454 kts 177°
2026-05-04 20:40 43.72694 11.83770 31135 ft 456 kts 173°
2026-05-04 20:40 43.66559 11.85837 31136 ft 458 kts 171°
2026-05-04 20:41 43.60385 11.87978 31124 ft 457 kts 172°
2026-05-04 20:41 43.54192 11.89992 31136 ft 457 kts 172°
2026-05-04 20:42 43.47993 11.91926 31139 ft 457 kts 173°
2026-05-04 20:42 43.41787 11.93873 31128 ft 458 kts 172°
2026-05-04 20:43 43.38722 11.94845 30889 ft 458 kts 173°
2026-05-04 20:43 43.35620 11.95823 30640 ft 458 kts 173°
2026-05-04 20:43 43.32515 11.96800 30407 ft 458 kts 172°
2026-05-04 20:43 43.29411 11.97777 30154 ft 458 kts 172°
2026-05-04 20:44 43.26300 11.98761 29310 ft 458 kts 172°
2026-05-04 20:44 43.23206 11.99747 28541 ft 455 kts 171°
2026-05-04 20:44 43.20143 12.00721 27918 ft 449 kts 171°
2026-05-04 20:44 43.17130 12.01667 27223 ft 444 kts 171°
2026-05-04 20:45 43.14113 12.02609 26540 ft 441 kts 171°
2026-05-04 20:45 43.11131 12.03538 25866 ft 438 kts 170°
2026-05-04 20:45 43.08173 12.04460 25191 ft 435 kts 170°
2026-05-04 20:45 43.05272 12.05365 24547 ft 432 kts 169°
2026-05-04 20:46 43.02359 12.06274 23892 ft 429 kts 169°
2026-05-04 20:46 42.99451 12.07178 23174 ft 426 kts 169°
2026-05-04 20:46 42.96579 12.08071 22569 ft 420 kts 169°
2026-05-04 20:46 42.93785 12.08940 21994 ft 403 kts 169°
2026-05-04 20:47 42.91108 12.09779 21473 ft 387 kts 169°
2026-05-04 20:47 42.88535 12.10586 20976 ft 375 kts 170°
2026-05-04 20:47 42.85982 12.11381 20499 ft 376 kts 170°
2026-05-04 20:47 42.83442 12.12170 20024 ft 373 kts 170°
2026-05-04 20:48 42.80936 12.12941 19804 ft 363 kts 170°
2026-05-04 20:48 42.78511 12.13690 19682 ft 352 kts 170°
2026-05-04 20:48 42.76196 12.14411 19550 ft 341 kts 171°
2026-05-04 20:48 42.73909 12.15121 19299 ft 334 kts 171°
2026-05-04 20:49 42.71660 12.15821 19222 ft 331 kts 171°
2026-05-04 20:49 42.69456 12.16783 18901 ft 334 kts 159°
2026-05-04 20:49 42.67418 12.18302 18560 ft 335 kts 153°
2026-05-04 20:49 42.65416 12.19911 18174 ft 333 kts 153°
2026-05-04 20:50 42.63427 12.21507 17774 ft 331 kts 153°
2026-05-04 20:50 42.61444 12.23096 17371 ft 330 kts 153°
2026-05-04 20:50 42.59459 12.24685 16854 ft 333 kts 153°
2026-05-04 20:50 42.57455 12.26287 16348 ft 336 kts 153°
2026-05-04 20:51 42.55464 12.27876 15707 ft 335 kts 153°
2026-05-04 20:51 42.53465 12.29474 15097 ft 332 kts 152°
2026-05-04 20:51 42.51484 12.31055 14498 ft 329 kts 152°
2026-05-04 20:51 42.49521 12.32618 13904 ft 326 kts 152°
2026-05-04 20:52 42.47572 12.34165 13257 ft 323 kts 152°
2026-05-04 20:52 42.45644 12.35695 12626 ft 319 kts 152°
2026-05-04 20:52 42.43765 12.37192 12233 ft 307 kts 152°
2026-05-04 20:52 42.41944 12.38642 11862 ft 301 kts 152°
2026-05-04 20:53 42.40150 12.40067 11427 ft 297 kts 152°
2026-05-04 20:53 42.38388 12.41463 10929 ft 290 kts 152°
2026-05-04 20:53 42.36667 12.42816 10447 ft 282 kts 154°
2026-05-04 20:53 42.34902 12.43780 9977 ft 274 kts 164°
2026-05-04 20:54 42.33103 12.44537 9450 ft 268 kts 164°
2026-05-04 20:54 42.31354 12.45272 9165 ft 256 kts 165°
2026-05-04 20:54 42.29657 12.45986 9143 ft 256 kts 165°
2026-05-04 20:54 42.27956 12.46700 9147 ft 256 kts 165°
2026-05-04 20:55 42.26252 12.47416 9147 ft 256 kts 165°
2026-05-04 20:55 42.24546 12.48056 9142 ft 249 kts 175°
2026-05-04 20:55 42.22881 12.47788 9145 ft 241 kts 204°
2026-05-04 20:55 42.21555 12.46458 9145 ft 241 kts 232°
2026-05-04 20:56 42.20845 12.44411 9148 ft 244 kts 251°
2026-05-04 20:56 42.20347 12.42249 9140 ft 245 kts 251°
2026-05-04 20:56 42.19841 12.40051 9017 ft 245 kts 251°
2026-05-04 20:56 42.19358 12.37857 8885 ft 245 kts 256°
2026-05-04 20:57 42.19448 12.35575 8754 ft 249 kts 288°
2026-05-04 20:57 42.20449 12.33672 8630 ft 255 kts 321°
2026-05-04 20:57 42.22071 12.32688 8509 ft 259 kts 341°
2026-05-04 20:57 42.23804 12.31976 8380 ft 260 kts 341°
2026-05-04 20:58 42.25535 12.31254 8255 ft 260 kts 341°
2026-05-04 20:58 42.27257 12.30518 8124 ft 257 kts 337°
2026-05-04 20:58 42.28735 12.29294 8005 ft 246 kts 312°
2026-05-04 20:58 42.29679 12.27462 7877 ft 238 kts 288°
2026-05-04 20:59 42.30005 12.25284 7753 ft 232 kts 265°
2026-05-04 20:59 42.29700 12.23210 7631 ft 227 kts 244°
2026-05-04 20:59 42.28846 12.21453 7474 ft 224 kts 223°
2026-05-04 20:59 42.27587 12.20261 7256 ft 221 kts 202°
2026-05-04 21:00 42.26101 12.19785 7017 ft 220 kts 183°
2026-05-04 21:00 42.24571 12.19714 6773 ft 220 kts 182°
2026-05-04 21:00 42.23050 12.19639 6517 ft 218 kts 183°
2026-05-04 21:00 42.21534 12.19562 6267 ft 218 kts 183°
2026-05-04 21:01 42.20023 12.19485 6017 ft 217 kts 183°
2026-05-04 21:01 42.18517 12.19408 5764 ft 216 kts 183°
2026-05-04 21:01 42.17041 12.19333 5508 ft 214 kts 182°
2026-05-04 21:01 42.15555 12.19256 5262 ft 214 kts 182°
2026-05-04 21:02 42.14089 12.18963 4939 ft 214 kts 192°
2026-05-04 21:02 42.12621 12.18518 4584 ft 218 kts 192°
2026-05-04 21:02 42.11131 12.18067 4180 ft 221 kts 192°
2026-05-04 21:02 42.09659 12.17621 4045 ft 212 kts 191°
2026-05-04 21:03 42.08232 12.17192 4053 ft 210 kts 192°
2026-05-04 21:03 42.06796 12.16998 4053 ft 208 kts 176°
2026-05-04 21:03 42.05385 12.17402 4059 ft 208 kts 163°
2026-05-04 21:03 42.04008 12.17986 4001 ft 208 kts 163°
2026-05-04 21:04 42.02628 12.18570 3787 ft 207 kts 163°
2026-05-04 21:04 42.01257 12.19148 3449 ft 205 kts 164°
2026-05-04 21:04 41.99945 12.19701 3191 ft 195 kts 164°
2026-05-04 21:04 41.98698 12.20227 2945 ft 182 kts 164°
2026-05-04 21:05 41.97516 12.20724 2706 ft 177 kts 164°
2026-05-04 21:05 41.96353 12.21213 2483 ft 171 kts 164°
2026-05-04 21:05 41.95246 12.21679 2228 ft 161 kts 164°
2026-05-04 21:05 41.94220 12.22111 2020 ft 149 kts 165°
2026-05-04 21:06 41.93276 12.22507 1838 ft 138 kts 164°
2026-05-04 21:06 41.92375 12.22885 1652 ft 134 kts 164°
2026-05-04 21:06 41.91492 12.23256 1468 ft 133 kts 163°
2026-05-04 21:06 41.90616 12.23623 1301 ft 131 kts 163°
2026-05-04 21:07 41.89754 12.23979 1055 ft 131 kts 163°
2026-05-04 21:07 41.88882 12.24329 899 ft 132 kts 163°
2026-05-04 21:07 41.88003 12.24693 794 ft 132 kts 161°
2026-05-04 21:07 41.87124 12.25076 601 ft 133 kts 162°
2026-05-04 21:08 41.86234 12.25448 409 ft 135 kts 160°
2026-05-04 21:08 41.85348 12.25829 261 ft 134 kts 160°
2026-05-04 21:08 41.84472 12.26199 84 ft 132 kts 161°
2026-05-04 21:08 41.83637 12.26533 18 ft 108 kts 155°